Flag for U.S.A. Weather past 2 weeks in Livonia, Michigan, U.S.A.

Now
79 °F

Light rain. Broken clouds.


Feels Like: 81 °F
Forecast: 66 / 81 °F
Wind: 28 mph from Southwest

Location: Detroit Metropolitan Wayne County Airport

Current Time: May 25, 2015 at 4:52:03 PM

Latest Report: May 25, 2015 at 3:53 PM


Visibility: 8 mi

Pressure: 29.95 "Hg

Humidity: 60%

Dew point: 64 °F

Location of LivoniaLocation

Historic Weather in Livonia — Graph

°F

Livonia temperature yesterday

Maximum temperature yesterday: 79 °F (at 1:53 PM)
Minimum temperature yesterday: 54 °F (at 2:53 AM)
Average temperature yesterday: 68 °F

Past Weeks' High & Low Weather Summary

 TemperatureHumidityPressure
High84 °F (May 18, 2:53 PM)100% (May 11, 3:03 AM)30.50 "Hg (May 11, 3:03 AM)
Low41 °F (May 14, 4:53 AM)25% (May 22, 5:53 PM)29.78 "Hg (May 11, 6:53 PM)
Average62 °F63%30.12 "Hg
* Reported May 10 3:53 PM — May 25 3:53 PM, Livonia, Weather by CustomWeather, © 2015

Note: Actual official high and low records may vary slightly from our data, if they occured in-between our weather recording intervals... More about our weather records

Advertising

Livonia weather history for previous 24 hours

 ConditionsComfort  
Time TempWeatherWind HumidityBarometerVisibility
3:53 PM
Mon, May 25
79 °FLight rain. Broken clouds.28 mph60%29.95 "Hg8 mi
2:53 PM81 °FPartly sunny.28 mph54%29.96 "Hg10 mi
1:53 PM81 °FMostly cloudy.24 mph53%29.96 "Hg10 mi
12:53 PM82 °FCloudy.23 mph53%29.98 "Hg10 mi
11:53 AM78 °FMostly cloudy.22 mph58%29.99 "Hg10 mi
10:53 AM76 °FMostly cloudy.18 mph62%29.99 "Hg10 mi
9:53 AM74 °FLight rain. Mostly cloudy.16 mph64%30.01 "Hg10 mi
8:53 AM74 °FMostly cloudy.12 mph57%30.01 "Hg10 mi
7:53 AM71 °FMostly cloudy.13 mph57%30.01 "Hg10 mi
6:53 AM66 °FMostly cloudy.8 mph68%30.00 "Hg10 mi
5:53 AM66 °FPartly cloudy.6 mph63%30.00 "Hg10 mi
4:53 AM66 °FPassing clouds.7 mph63%30.01 "Hg10 mi
3:53 AM67 °FOvercast.8 mph61%30.02 "Hg10 mi
2:53 AM66 °FOvercast.6 mph68%30.03 "Hg10 mi
1:53 AM69 °FOvercast.7 mph61%30.04 "Hg10 mi
12:53 AM69 °FOvercast.8 mph61%30.06 "Hg10 mi
11:53 PM
Sun, May 24
70 °FPassing clouds.9 mph49%30.06 "Hg10 mi
10:53 PM70 °FPassing clouds.8 mph46%30.08 "Hg10 mi
9:53 PM72 °FBroken clouds.6 mph43%30.09 "Hg10 mi
8:53 PM74 °FBroken clouds.7 mph43%30.09 "Hg10 mi
7:53 PM76 °FBroken clouds.6 mph40%30.11 "Hg10 mi
6:53 PM77 °FBroken clouds.7 mph39%30.12 "Hg10 mi
5:53 PM77 °FMore clouds than sun.6 mph39%30.15 "Hg10 mi
4:53 PM76 °FMore clouds than sun.6 mph42%30.17 "Hg10 mi
Weather by CustomWeather, © 2015

See weather overviewHow to use our weather pages